TTCP

Details ICAO TTCP (TAB)
Name Tobago/Crown Point Intl
Region Trinidad and Tobago
Timezone America/Port_of_Spain (UTC-4.0)
Plans Departing 88
Arriving 83
Stats Elevation 36 ft / 11 m (AMSL)
Location 11.149660° -60.832196°
Runways 1
Magnetic Variation 15.214° W
Sunrise 2018-05-22 09:40:59 UTC / 2018-05-22 05:40:59 Local
Sunset 2018-05-22 22:21:53 UTC / 2018-05-22 18:21:53 Local
Advertisement - Login to hide

Runways

ID Width Length Bearing (true) Bearing (mag) Surface Threshold Offset Overrun Length
11 148 ft / 45 m 8,995 ft / 2,742 m 94.17° 109.38° Asphalt 1,004 ft / 306 m 0 ft / 0 m
29 148 ft / 45 m 8,995 ft / 2,742 m 274.17° 289.38° Asphalt 0 ft / 0 m 299 ft / 91 m

Approach Navaids

Runway Type Ident Frequency Range Bearing (true) Bearing (mag) Slope Elevation
11 Localiser ITAB 109.30 MHz 18 nm / 33 km 94.17° 109.38° - 36 ft / 11 m (AMSL)
11 Glidescope ITAB 109.30 MHz 10 nm / 19 km 94.17° 109.38° 3.00° 36 ft / 11 m (AMSL)
11 DME ITAB 109.30 MHz 18 nm / 33 km - - - 36 ft / 11 m (AMSL)

Map

Weather


0- 5 10 15 20 25 30 35+ Temperature / ° C

Clouds and Precipitation
Forecast for 2018-05-22 12:00 UTC. Updated an hour ago

Ground ~20,000 ft ~40,000 ft Winds

METAR

TTCP 221200Z 10008KT 9999 FEW016 28/23 Q1015 NOSIG

TAF

Not found

Frequencies

Ground 121.70 MHz GND
Approach 119.00 MHz PIARCO APP
Tower 118.40 MHz TWR
Warning: Do not use this data for real-world aviation or navigation. No guarantee of current accuracy is given.